Carthage, NC

8:51 PM EST on January 21, 2017 (GMT -0500)
Southern Pines

Weather History for KSOP - May, 2014

Change the Weather History Date:

Friday, May 2, 2014

  Actual Average Record
Temperature  
Mean Temperature 60 °F -  
Max Temperature 69 °F 74 °F 105 °F (2004)
Min Temperature 51 °F 52 °F 39 °F (2006)
Degree Days  
Heating Degree Days 5    
Growing Degree Days 10 (Base 50)    
Moisture  
Dew Point 44 °F    
Average Humidity 58    
Maximum Humidity 88    
Minimum Humidity 33    
Precipitation  
Precipitation 0.00 in - - ()
Sea Level Pressure  
Sea Level Pressure 29.92 in    
Wind  
Wind Speed 5 mph (SW)    
Max Wind Speed 12 mph    
Max Gust Speed 16 mph    
Visibility 10 miles    
Events      
Averages and records for this station are not official NWS values.
T = Trace of Precipitation, MM = Missing Value Source: NWS Daily Summary

Daily Weather History Graph

Daily Weather History Graph

Search for Another Location

Airport or City:

Trip Planner

Search our weather history database for the weather conditions in past years. The results will help you decide how hot, cold, wet, or windy it might be!

Date:

Astronomy

May. 02, 2014 Rise Set
Actual Time 6:25 AM EDT 8:04 PM EDT
Civil Twilight 5:58 AM EDT 8:31 PM EDT
Nautical Twilight 5:25 AM EDT 9:04 PM EDT
Astronomical Twilight 4:50 AM EDT 9:39 PM EDT
Moon 9:03 AM EDT (5/2) 11:23 PM EDT (5/2)
Length of Visible Light 14h 33m
Length of Day
13h 39m
Waxing Crescent, 12% of the Moon is Illuminated
May 2
Waxing Crescent
May 6
First Quarter
May 14
Full
May 21
Last Quarter
May 28
New

Hourly Weather History & Observations

Time (EDT) Temp. Dew Point Humidity Pressure Visibility Wind Dir Wind Speed Gust Speed Precip Events Conditions
12:15 AM 62.6 °F 55.4 °F 77% 29.87 in 10.0 mi WSW 11.5 mph - N/A   Partly Cloudy
12:35 AM 60.8 °F 55.4 °F 82% 29.88 in 10.0 mi SW 10.4 mph - N/A   Clear
12:55 AM 60.8 °F 55.4 °F 82% 29.88 in 10.0 mi WSW 10.4 mph 16.1 mph N/A   Clear
1:15 AM 60.8 °F 53.6 °F 77% 29.89 in 10.0 mi SSW 9.2 mph - N/A   Clear
1:35 AM 59.0 °F 53.6 °F 82% 29.89 in 10.0 mi WSW 5.8 mph - N/A   Clear
1:55 AM 59.0 °F 53.6 °F 82% 29.89 in 10.0 mi WSW 6.9 mph - N/A   Clear
2:15 AM 59.0 °F 53.6 °F 82% 29.88 in 10.0 mi WSW 8.1 mph - N/A   Clear
2:35 AM 59.0 °F 53.6 °F 82% 29.88 in 10.0 mi WSW 6.9 mph - N/A   Clear
2:55 AM 57.2 °F 53.6 °F 88% 29.88 in 10.0 mi WSW 5.8 mph - N/A   Clear
3:15 AM 57.2 °F 51.8 °F 82% 29.89 in 10.0 mi West 4.6 mph - N/A   Clear
3:35 AM 57.2 °F 51.8 °F 82% 29.90 in 10.0 mi West 4.6 mph - N/A   Clear
3:55 AM 57.2 °F 51.8 °F 82% 29.90 in 10.0 mi WSW 3.5 mph - N/A   Clear
4:15 AM 55.4 °F 51.8 °F 88% 29.90 in 10.0 mi Calm Calm - N/A   Clear
4:35 AM 55.4 °F 50.0 °F 82% 29.91 in 10.0 mi Calm Calm - N/A   Clear
4:55 AM 55.4 °F 48.2 °F 77% 29.91 in 10.0 mi Calm Calm - N/A   Clear
5:15 AM 53.6 °F 48.2 °F 82% 29.91 in 10.0 mi Calm Calm - N/A   Clear
5:35 AM 53.6 °F 48.2 °F 82% 29.92 in 10.0 mi Calm Calm - N/A   Clear
5:55 AM 51.8 °F 46.4 °F 82% 29.92 in 10.0 mi Calm Calm - N/A   Clear
6:15 AM 51.8 °F 46.4 °F 82% 29.93 in 10.0 mi Calm Calm - N/A   Clear
6:35 AM 51.8 °F 44.6 °F 76% 29.93 in 10.0 mi Calm Calm - N/A   Clear
6:55 AM 51.8 °F 44.6 °F 76% 29.93 in 10.0 mi Calm Calm - N/A   Clear
7:15 AM 53.6 °F 44.6 °F 72% 29.94 in 10.0 mi Calm Calm - N/A   Clear
7:35 AM 55.4 °F 44.6 °F 67% 29.94 in 10.0 mi Calm Calm - N/A   Clear
7:55 AM 55.4 °F 44.6 °F 67% 29.94 in 10.0 mi Calm Calm - N/A   Clear
8:15 AM 55.4 °F 44.6 °F 67% 29.96 in 10.0 mi Calm Calm - N/A   Clear
8:35 AM 57.2 °F 44.6 °F 63% 29.95 in 10.0 mi Calm Calm - N/A   Clear
8:55 AM 60.8 °F 42.8 °F 52% 29.95 in 10.0 mi NE 5.8 mph - N/A   Clear
9:15 AM 60.8 °F 41.0 °F 48% 29.97 in 10.0 mi Calm Calm - N/A   Clear
9:35 AM 62.6 °F 42.8 °F 48% 29.97 in 10.0 mi Calm Calm - N/A   Clear
9:55 AM 64.4 °F 39.2 °F 40% 29.96 in 10.0 mi NNE 4.6 mph - N/A   Clear
10:15 AM 62.6 °F 35.6 °F 37% 29.97 in 10.0 mi North 3.5 mph - N/A   Clear
10:35 AM 62.6 °F 37.4 °F 39% 29.97 in 10.0 mi Calm Calm - N/A   Mostly Cloudy
10:55 AM 62.6 °F 39.2 °F 42% 29.98 in 10.0 mi Calm Calm - N/A   Overcast
11:15 AM 60.8 °F 39.2 °F 45% 29.98 in 10.0 mi Calm Calm - N/A   Overcast
11:35 AM 60.8 °F 42.8 °F 52% 29.98 in 10.0 mi North 4.6 mph - N/A   Overcast
11:55 AM 60.8 °F 39.2 °F 45% 29.95 in 10.0 mi NE 4.6 mph - N/A   Overcast
12:15 PM 60.8 °F 37.4 °F 42% 29.94 in 10.0 mi Calm Calm - N/A   Overcast
12:35 PM 60.8 °F 39.2 °F 45% 29.96 in 10.0 mi East 3.5 mph - N/A   Mostly Cloudy
12:55 PM 60.8 °F 41.0 °F 48% 29.93 in 10.0 mi East 5.8 mph - N/A   Mostly Cloudy
1:15 PM 62.6 °F 37.4 °F 39% 29.93 in 10.0 mi ENE 4.6 mph - N/A   Mostly Cloudy
1:35 PM 62.6 °F 37.4 °F 39% 29.94 in 10.0 mi NE 3.5 mph - N/A   Mostly Cloudy
1:55 PM 62.6 °F 37.4 °F 39% 29.94 in 10.0 mi Calm Calm - N/A   Mostly Cloudy
2:15 PM 64.4 °F 37.4 °F 37% 29.94 in 10.0 mi Calm Calm - N/A   Scattered Clouds
2:35 PM 64.4 °F 39.2 °F 40% 29.94 in 10.0 mi Calm Calm - N/A   Partly Cloudy
2:55 PM 64.4 °F 39.2 °F 40% 29.93 in 10.0 mi South 4.6 mph - N/A   Partly Cloudy
3:15 PM 64.4 °F 39.2 °F 40% 29.91 in 10.0 mi SW 6.9 mph - N/A   Partly Cloudy
3:35 PM 66.2 °F 39.2 °F 37% 29.91 in 10.0 mi WSW 3.5 mph - N/A   Clear
3:55 PM 66.2 °F 37.4 °F 35% 29.90 in 10.0 mi SW 8.1 mph - N/A   Clear
4:15 PM 66.2 °F 39.2 °F 37% 29.90 in 10.0 mi Calm Calm - N/A   Mostly Cloudy
4:35 PM 68.0 °F 39.2 °F 35% 29.90 in 10.0 mi SW 8.1 mph - N/A   Overcast
4:55 PM 66.2 °F 39.2 °F 37% 29.90 in 10.0 mi WSW 5.8 mph - N/A   Overcast
5:15 PM 68.0 °F 39.2 °F 35% 29.90 in 10.0 mi WSW 5.8 mph - N/A   Overcast
5:35 PM 69.8 °F 39.2 °F 33% 29.90 in 10.0 mi SSW 11.5 mph - N/A   Overcast
5:55 PM 68.0 °F 37.4 °F 33% 29.90 in 10.0 mi SW 5.8 mph - N/A   Mostly Cloudy
6:15 PM 66.2 °F 37.4 °F 35% 29.90 in 10.0 mi West 4.6 mph - N/A   Clear
6:35 PM 66.2 °F 39.2 °F 37% 29.90 in 10.0 mi WSW 5.8 mph - N/A   Clear
6:55 PM 64.4 °F 41.0 °F 42% 29.90 in 10.0 mi SSW 5.8 mph - N/A   Clear
7:15 PM 62.6 °F 42.8 °F 48% 29.90 in 10.0 mi South 5.8 mph - N/A   Clear
7:35 PM 62.6 °F 42.8 °F 48% 29.88 in 10.0 mi South 4.6 mph - N/A   Clear
7:55 PM 62.6 °F 42.8 °F 48% 29.89 in 10.0 mi South 4.6 mph - N/A   Clear
8:15 PM 60.8 °F 42.8 °F 52% 29.89 in 10.0 mi South 3.5 mph - N/A   Clear
8:35 PM 60.8 °F 42.8 °F 52% 29.89 in 10.0 mi Calm Calm - N/A   Clear
8:55 PM 59.0 °F 42.8 °F 55% 29.89 in 10.0 mi South 3.5 mph - N/A   Clear
9:15 PM 59.0 °F 42.8 °F 55% 29.90 in 10.0 mi South 4.6 mph - N/A   Clear
9:35 PM 59.0 °F 44.6 °F 59% 29.90 in 10.0 mi SSW 6.9 mph - N/A   Clear
9:55 PM 59.0 °F 44.6 °F 59% 29.91 in 10.0 mi SSW 5.8 mph - N/A   Clear
10:15 PM 57.2 °F 44.6 °F 63% 29.91 in 10.0 mi SSW 6.9 mph - N/A   Clear
10:35 PM 57.2 °F 44.6 °F 63% 29.91 in 10.0 mi SSW 5.8 mph - N/A   Clear
10:55 PM 57.2 °F 46.4 °F 67% 29.91 in 10.0 mi SSW 6.9 mph - N/A   Clear
11:15 PM 57.2 °F 46.4 °F 67% 29.91 in 10.0 mi SW 8.1 mph - N/A   Scattered Clouds
11:35 PM 57.2 °F 46.4 °F 67% 29.90 in 10.0 mi SW 5.8 mph - N/A   Overcast
11:55 PM 57.2 °F 46.4 °F 67% 29.91 in 10.0 mi SW 5.8 mph - N/A   Overcast